This is the latest recevied weather packets stored in our database for station/object PA5MB-15. If no packets are shown the sender has not sent any weather packets the latest 10 day(s).
| Time | Temp. | Humidity | Pressure | Rain* | Wind** | Luminosity | Snow |
|---|---|---|---|---|---|---|---|
| 1777553131 | 20.56° C | 20% | 1026.4 hPa | 0 mm | - | 63 W/m² | - |
| 1777552839 | 20.56° C | 20% | 1026.4 hPa | 0 mm | - | 64 W/m² | - |
| 1777552543 | 20.56° C | 20% | 1026.6 hPa | 0 mm | - | 64 W/m² | - |
| 1777552224 | 20.56° C | 20% | 1026.6 hPa | 0 mm | - | 64 W/m² | - |
| 1777551931 | 20.56° C | 20% | 1026.7 hPa | 0 mm | - | 65 W/m² | - |
| 1777551631 | 20.56° C | 20% | 1026.7 hPa | 0 mm | - | 64 W/m² | - |
| 1777551331 | 20.56° C | 20% | 1026.8 hPa | 0 mm | - | 65 W/m² | - |
| 1777551031 | 20.56° C | 20% | 1026.8 hPa | 0 mm | - | 65 W/m² | - |
| 1777550727 | 20° C | 21% | 1026.8 hPa | 0 mm | - | 67 W/m² | - |
| 1777550431 | 19.44° C | 21% | 1026.8 hPa | 0 mm | - | 68 W/m² | - |
| 1777550131 | 20° C | 20% | 1026.9 hPa | 0 mm | - | 68 W/m² | - |
| 1777549825 | 20° C | 20% | 1026.9 hPa | 0 mm | - | 68 W/m² | - |
| 1777549532 | 19.44° C | 20% | 1026.9 hPa | 0 mm | - | 68 W/m² | - |
| 1777549231 | 19.44° C | 20% | 1027 hPa | 0 mm | - | 68 W/m² | - |
| 1777548931 | 20° C | 20% | 1027 hPa | 0 mm | - | 68 W/m² | - |
| 1777548631 | 19.44° C | 21% | 1026.9 hPa | 0 mm | - | 68 W/m² | - |
| 1777548331 | 19.44° C | 22% | 1026.9 hPa | 0 mm | - | 68 W/m² | - |
| 1777548031 | 19.44° C | 22% | 1027 hPa | 0 mm | - | 68 W/m² | - |
| 1777547732 | 18.89° C | 22% | 1027 hPa | 0 mm | - | 67 W/m² | - |
| 1777547421 | 18.89° C | 23% | 1027.2 hPa | 0 mm | - | 67 W/m² | - |
| 1777547131 | 19.44° C | 22% | 1027.3 hPa | 0 mm | - | 67 W/m² | - |
| 1777546831 | 18.89° C | 23% | 1027.4 hPa | 0 mm | - | 67 W/m² | - |
| 1777546531 | 18.89° C | 23% | 1027.4 hPa | 0 mm | - | 67 W/m² | - |
| 1777546231 | 18.33° C | 23% | 1027.5 hPa | 0 mm | - | 66 W/m² | - |
| 1777545931 | 17.78° C | 24% | 1027.5 hPa | 0 mm | - | 66 W/m² | - |
* Rain latest hour (hover to see other rain measurements)
** Current wind speed in m/s (hover to see current wind gust speed)